| time (UTC) | temp F | wind direction | speed MPH | gust MPH | rain 1hr in | rain 24hr in | rain mn in | humidity % | barometer mb |
| 20260507071654 | 50 | 350 | 2.0 | 9.0 | 0.00 | 1.04 | 0.00 | 71 | 1010.8 |
| 20260507070953 | 50 | 331 | 3.0 | 10.0 | 0.00 | 1.04 | 0.00 | 73 | 1010.9 |
| 20260507070403 | 50 | 352 | 4.0 | 10.0 | 0.00 | 1.04 | 0.00 | 74 | 1010.9 |
| 20260507065809 | 50 | 309 | 3.0 | 10.0 | 0.00 | 1.04 | 0.00 | 75 | 1011.0 |
| 20260507065219 | 50 | 311 | 4.0 | 10.0 | 0.00 | 1.04 | 0.00 | 75 | 1011.0 |
| 20260507064741 | 50 | 297 | 4.0 | 10.0 | 0.00 | 1.04 | 0.00 | 79 | 1010.7 |
| 20260507064151 | 50 | 318 | 3.0 | 10.0 | 0.00 | 1.04 | 0.00 | 82 | 1010.8 |
| 20260507063709 | 50 | 319 | 4.0 | 10.0 | 0.00 | 1.04 | 0.00 | 84 | 1010.9 |
| 20260507062748 | 51 | 324 | 3.0 | 8.0 | 0.00 | 1.04 | 0.00 | 86 | 1010.7 |
| 20260507062053 | 51 | 314 | 1.0 | 4.0 | 0.00 | 1.04 | 0.00 | 86 | 1010.6 |
| 20260507061350 | 51 | 315 | 2.0 | 4.0 | 0.00 | 1.04 | 0.00 | 86 | 1010.8 |
| 20260507060759 | 51 | 335 | 1.0 | 4.0 | 0.00 | 1.04 | 0.00 | 86 | 1010.7 |
| 20260507060211 | 51 | 334 | 2.0 | 4.0 | 0.00 | 1.04 | 0.00 | 86 | 1010.8 |
| 20260507055621 | 51 | 5 | 1.0 | 3.0 | 0.00 | 1.04 | 0.00 | 86 | 1010.6 |
| 20260507055026 | 51 | 323 | 0.0 | 2.0 | 0.00 | 1.04 | 0.00 | 86 | 1010.8 |
| 20260507054440 | 51 | 323 | 0.0 | 2.0 | 0.00 | 1.04 | 0.00 | 85 | 1010.8 |
| 20260507053850 | 51 | 323 | 0.0 | 2.0 | 0.00 | 1.04 | 0.00 | 85 | 1010.8 |
| 20260507053256 | 51 | 322 | 0.0 | 2.0 | 0.00 | 1.04 | 0.00 | 85 | 1010.8 |
| 20260507052821 | 51 | 322 | 0.0 | 2.0 | 0.00 | 1.04 | 0.00 | 85 | 1010.8 |
| 20260507052229 | 51 | 322 | 0.0 | 2.0 | 0.00 | 1.04 | 0.00 | 85 | 1010.8 |
| 20260507051635 | 51 | 323 | 0.0 | 4.0 | 0.00 | 1.04 | 0.00 | 85 | 1010.9 |
| 20260507051155 | 51 | 323 | 0.0 | 4.0 | 0.00 | 1.04 | 0.00 | 85 | 1011.0 |
| 20260507050715 | 51 | 309 | 0.0 | 2.0 | 0.00 | 1.04 | 0.00 | 85 | 1010.9 |
| 20260507050035 | 51 | 309 | 0.0 | 5.0 | 0.00 | 1.04 | 0.00 | 85 | 1010.7 |
| 20260507045208 | 51 | 76 | 0.0 | 5.0 | 0.00 | 1.04 | 0.00 | 85 | 1010.7 |
| 20260507044618 | 51 | 333 | 1.0 | 4.0 | 0.00 | 1.04 | 0.00 | 85 | 1010.7 |
| 20260507044130 | 51 | 323 | 1.0 | 3.0 | 0.00 | 1.04 | 0.00 | 86 | 1010.8 |
| 20260507043541 | 51 | 15 | 0.0 | 2.0 | 0.00 | 1.04 | 0.00 | 85 | 1010.9 |
| 20260507043109 | 51 | 15 | 0.0 | 3.0 | 0.00 | 1.04 | 0.00 | 85 | 1010.9 |
| 20260507042358 | 51 | 54 | 1.0 | 3.0 | 0.00 | 1.04 | 1.04 | 86 | 1010.6 |
| 20260507041812 | 52 | 53 | 2.0 | 3.0 | 0.00 | 1.04 | 1.04 | 86 | 1010.8 |
| 20260507041221 | 52 | 346 | 0.0 | 2.0 | 0.00 | 1.04 | 1.04 | 86 | 1010.3 |
| 20260507040634 | 52 | 329 | 0.0 | 4.0 | 0.00 | 1.04 | 1.04 | 85 | 1010.3 |
| 20260507040149 | 52 | 15 | 1.0 | 4.0 | 0.00 | 1.04 | 1.04 | 85 | 1010.4 |
| 20260507035606 | 52 | 44 | 0.0 | 2.0 | 0.00 | 1.04 | 1.04 | 85 | 1010.5 |
| 20260507035014 | 52 | 45 | 1.0 | 2.0 | 0.00 | 1.04 | 1.04 | 85 | 1010.1 |
| 20260507034547 | 52 | 46 | 1.0 | 4.0 | 0.00 | 1.04 | 1.04 | 85 | 1010.1 |
| 20260507033834 | 52 | 46 | 1.0 | 4.0 | 0.00 | 1.04 | 1.04 | 85 | 1010.0 |
| 20260507033354 | 52 | 34 | 2.0 | 4.0 | 0.00 | 1.04 | 1.04 | 85 | 1010.1 |
| 20260507032653 | 52 | 25 | 2.0 | 4.0 | 0.00 | 1.04 | 1.04 | 85 | 1010.1 |
| 20260507031948 | 52 | 31 | 2.0 | 5.0 | 0.00 | 1.04 | 1.04 | 85 | 1010.4 |
| 20260507031404 | 52 | 39 | 2.0 | 6.0 | 0.00 | 1.04 | 1.04 | 85 | 1010.2 |
| 20260507030918 | 53 | 51 | 3.0 | 6.0 | 0.00 | 1.04 | 1.04 | 85 | 1010.2 |
| 20260507030223 | 53 | 29 | 1.0 | 5.0 | 0.00 | 1.04 | 1.04 | 85 | 1010.3 |
| 20260507025411 | 53 | 50 | 2.0 | 5.0 | 0.00 | 1.04 | 1.04 | 85 | 1010.3 |
| 20260507024819 | 53 | 36 | 3.0 | 9.0 | 0.00 | 1.04 | 1.04 | 85 | 1010.5 |
| 20260507024342 | 53 | 40 | 2.0 | 9.0 | 0.00 | 1.04 | 1.04 | 85 | 1010.3 |
| 20260507023751 | 53 | 51 | 2.0 | 5.0 | 0.00 | 1.04 | 1.04 | 85 | 1010.3 |
| 20260507023309 | 53 | 36 | 2.0 | 9.0 | 0.00 | 1.04 | 1.04 | 85 | 1010.1 |
| 20260507022607 | 53 | 31 | 5.0 | 12.0 | 0.00 | 1.04 | 1.04 | 85 | 1010.0 |
| 20260507022134 | 53 | 57 | 4.0 | 12.0 | 0.00 | 1.04 | 1.04 | 84 | 1010.0 |
| 20260507021552 | 53 | 52 | 3.0 | 10.0 | 0.00 | 1.04 | 1.04 | 85 | 1010.0 |
| 20260507020951 | 53 | 52 | 3.0 | 11.0 | 0.00 | 1.04 | 1.04 | 85 | 1010.1 |
| 20260507020509 | 53 | 25 | 5.0 | 11.0 | 0.00 | 1.04 | 1.04 | 84 | 1010.3 |
| 20260507015920 | 54 | 47 | 3.0 | 8.0 | 0.00 | 1.04 | 1.04 | 85 | 1010.4 |
| 20260507015545 | 54 | 36 | 2.0 | 8.0 | 0.00 | 1.04 | 1.04 | 85 | 1010.3 |
| 20260507014847 | 54 | 42 | 3.0 | 8.0 | 0.00 | 1.04 | 1.04 | 85 | 1010.3 |
| 20260507014406 | 54 | 40 | 3.0 | 7.0 | 0.00 | 1.04 | 1.04 | 85 | 1010.4 |
| 20260507013600 | 54 | 36 | 3.0 | 7.0 | 0.00 | 1.04 | 1.04 | 85 | 1010.4 |
| 20260507013045 | 54 | 360 | 3.0 | 8.0 | 0.00 | 1.04 | 1.04 | 85 | 1010.5 |
| 20260507012520 | 55 | 60 | 4.0 | 8.0 | 0.00 | 1.04 | 1.04 | 85 | 1010.4 |
| 20260507012039 | 55 | 46 | 5.0 | 9.0 | 0.00 | 1.04 | 1.04 | 85 | 1010.3 |
| 20260507011610 | 55 | 26 | 3.0 | 10.0 | 0.00 | 1.04 | 1.04 | 85 | 1010.5 |
| 20260507011118 | 56 | 34 | 5.0 | 10.0 | 0.00 | 1.04 | 1.04 | 84 | 1010.2 |
| 20260507010422 | 56 | 44 | 4.0 | 9.0 | 0.00 | 1.04 | 1.04 | 83 | 1010.0 |
| 20260507005721 | 57 | 288 | 2.0 | 12.0 | 0.00 | 1.04 | 1.04 | 82 | 1009.9 |
| 20260507005007 | 58 | 311 | 3.0 | 12.0 | 0.00 | 1.04 | 1.04 | 81 | 1009.9 |
| 20260507004526 | 58 | 308 | 6.0 | 12.0 | 0.00 | 1.04 | 1.04 | 81 | 1009.9 |
| 20260507004011 | 58 | 306 | 4.0 | 10.0 | 0.00 | 1.04 | 1.04 | 82 | 1009.7 |
| 20260507003514 | 58 | 261 | 4.0 | 10.0 | 0.00 | 1.04 | 1.04 | 81 | 1009.6 |
| 20260507003028 | 58 | 281 | 3.0 | 10.0 | 0.00 | 1.04 | 1.04 | 82 | 1009.4 |
| 20260507002506 | 58 | 323 | 3.0 | 10.0 | 0.00 | 1.04 | 1.04 | 82 | 1009.3 |
| 20260507002009 | 58 | 319 | 3.0 | 10.0 | 0.00 | 1.04 | 1.04 | 82 | 1009.2 |
| 20260507001515 | 58 | 281 | 3.0 | 9.0 | 0.00 | 1.04 | 1.04 | 82 | 1008.7 |
| 20260507001012 | 58 | 290 | 3.0 | 10.0 | 0.00 | 1.04 | 1.04 | 82 | 1008.6 |
| 20260507000507 | 58 | 304 | 3.0 | 10.0 | 0.00 | 1.04 | 1.04 | 82 | 1008.6 |
| 20260507000029 | 58 | 276 | 3.0 | 8.0 | 0.00 | 1.04 | 1.04 | 83 | 1008.7 |
| 20260506235511 | 59 | 309 | 2.0 | 9.0 | 0.00 | 1.04 | 1.04 | 83 | 1008.5 |
| 20260506235007 | 59 | 304 | 2.0 | 9.0 | 0.00 | 1.04 | 1.04 | 82 | 1008.4 |
| 20260506234504 | 59 | 300 | 3.0 | 8.0 | 0.00 | 1.04 | 1.04 | 82 | 1008.3 |
| 20260506234003 | 59 | 317 | 3.0 | 8.0 | 0.00 | 1.04 | 1.04 | 83 | 1008.4 |
| 20260506233507 | 59 | 294 | 3.0 | 6.0 | 0.00 | 1.04 | 1.04 | 83 | 1008.2 |
| 20260506233008 | 59 | 288 | 2.0 | 8.0 | 0.00 | 1.04 | 1.04 | 83 | 1008.0 |
| 20260506232509 | 59 | 313 | 1.0 | 8.0 | 0.00 | 1.04 | 1.04 | 83 | 1007.9 |
| 20260506232007 | 59 | 295 | 2.0 | 8.0 | 0.00 | 1.04 | 1.04 | 82 | 1008.1 |
| 20260506231512 | 59 | 295 | 1.0 | 8.0 | 0.00 | 1.04 | 1.04 | 82 | 1008.1 |
| 20260506231006 | 59 | 278 | 4.0 | 8.0 | 0.00 | 1.04 | 1.04 | 82 | 1008.0 |
| 20260506230508 | 59 | 293 | 4.0 | 9.0 | 0.00 | 1.04 | 1.04 | 83 | 1007.9 |
| 20260506230029 | 60 | 299 | 3.0 | 11.0 | 0.00 | 1.04 | 1.04 | 83 | 1007.9 |
| 20260506225508 | 60 | 229 | 3.0 | 11.0 | 0.00 | 1.04 | 1.04 | 83 | 1008.0 |
| 20260506225007 | 60 | 323 | 4.0 | 11.0 | 0.00 | 1.04 | 1.04 | 82 | 1007.9 |
| 20260506224531 | 60 | 340 | 5.0 | 13.0 | 0.00 | 1.04 | 1.04 | 83 | 1007.9 |
| 20260506224008 | 60 | 289 | 4.0 | 13.0 | 0.00 | 1.04 | 1.04 | 84 | 1007.9 |
| 20260506223508 | 61 | 325 | 5.0 | 11.0 | 0.00 | 1.04 | 1.04 | 83 | 1007.9 |
| 20260506223004 | 61 | 297 | 4.0 | 13.0 | 0.00 | 1.04 | 1.04 | 84 | 1007.9 |
| 20260506222506 | 61 | 328 | 2.0 | 13.0 | 0.00 | 1.04 | 1.04 | 84 | 1007.9 |
| 20260506222007 | 61 | 260 | 4.0 | 13.0 | 0.00 | 1.04 | 1.04 | 84 | 1007.8 |
| 20260506221508 | 62 | 252 | 3.0 | 12.0 | 0.00 | 1.04 | 1.04 | 84 | 1007.8 |
| 20260506221004 | 62 | 264 | 5.0 | 12.0 | 0.00 | 1.04 | 1.04 | 85 | 1007.6 |
| 20260506220507 | 63 | 327 | 2.0 | 8.0 | 0.00 | 1.04 | 1.04 | 86 | 1007.5 |
| 20260506220030 | 63 | 300 | 3.0 | 8.0 | 0.00 | 1.04 | 1.04 | 86 | 1007.4 |
| 20260506215514 | 63 | 317 | 1.0 | 5.0 | 0.00 | 1.04 | 1.04 | 86 | 1007.3 |
| 20260506215009 | 63 | 342 | 2.0 | 6.0 | 0.00 | 1.04 | 1.04 | 87 | 1007.1 |
| 20260506214528 | 63 | 292 | 2.0 | 6.0 | 0.00 | 1.04 | 1.04 | 87 | 1006.9 |
| 20260506214007 | 64 | 282 | 2.0 | 6.0 | 0.00 | 1.04 | 1.04 | 88 | 1006.9 |
| 20260506213509 | 64 | 315 | 1.0 | 7.0 | 0.00 | 1.04 | 1.04 | 88 | 1006.7 |
| 20260506213028 | 64 | 273 | 2.0 | 7.0 | 0.00 | 1.04 | 1.04 | 88 | 1006.7 |
| 20260506212510 | 64 | 276 | 3.0 | 6.0 | 0.00 | 1.04 | 1.04 | 88 | 1006.6 |
| 20260506212004 | 64 | 253 | 0.0 | 0.0 | 0.00 | 1.04 | 1.04 | 89 | 1006.5 |
| 20260506211514 | 64 | 243 | 0.0 | 3.0 | 0.00 | 1.04 | 1.04 | 89 | 1006.5 |
| 20260506211008 | 64 | 219 | 0.0 | 7.0 | 0.00 | 1.04 | 1.04 | 89 | 1006.5 |
| 20260506210517 | 64 | 244 | 1.0 | 7.0 | 0.00 | 1.04 | 1.04 | 89 | 1006.5 |
| 20260506210025 | 64 | 280 | 1.0 | 5.0 | 0.00 | 1.04 | 1.04 | 89 | 1006.5 |
| 20260506205510 | 64 | 204 | 1.0 | 6.0 | 0.00 | 1.04 | 1.04 | 89 | 1006.4 |
| 20260506205015 | 63 | 198 | 3.0 | 9.0 | 0.00 | 1.04 | 1.04 | 89 | 1006.3 |
| 20260506204520 | 63 | 202 | 3.0 | 9.0 | 0.00 | 1.04 | 1.04 | 89 | 1006.3 |
| 20260506204010 | 63 | 181 | 3.0 | 8.0 | 0.00 | 1.04 | 1.04 | 89 | 1006.2 |
| 20260506203510 | 63 | 205 | 2.0 | 8.0 | 0.00 | 1.04 | 1.04 | 89 | 1006.2 |
| 20260506203024 | 63 | 206 | 2.0 | 7.0 | 0.00 | 1.04 | 1.04 | 90 | 1006.2 |
| 20260506202513 | 63 | 210 | 3.0 | 5.0 | 0.00 | 1.04 | 1.04 | 90 | 1006.2 |
| 20260506202010 | 63 | 165 | 2.0 | 9.0 | 0.00 | 1.04 | 1.04 | 90 | 1006.0 |
| 20260506201527 | 63 | 168 | 4.0 | 9.0 | 0.00 | 1.04 | 1.04 | 90 | 1006.0 |
| 20260506201011 | 63 | 196 | 4.0 | 8.0 | 0.00 | 1.04 | 1.04 | 90 | 1006.1 |
| 20260506200506 | 63 | 202 | 4.0 | 8.0 | 0.00 | 1.04 | 1.04 | 90 | 1006.2 |
| 20260506200030 | 63 | 197 | 4.0 | 6.0 | 0.00 | 1.04 | 1.04 | 92 | 1006.2 |
| 20260506195507 | 62 | 217 | 2.0 | 6.0 | 0.00 | 1.04 | 1.04 | 92 | 1006.2 |
| 20260506195010 | 62 | 221 | 1.0 | 7.0 | 0.00 | 1.04 | 1.04 | 92 | 1006.2 |
| 20260506194515 | 62 | 206 | 3.0 | 7.0 | 0.00 | 1.04 | 1.04 | 92 | 1006.4 |
| 20260506194008 | 61 | 218 | 4.0 | 7.0 | 0.00 | 1.04 | 1.04 | 92 | 1006.4 |
| 20260506193507 | 61 | 209 | 4.0 | 7.0 | 0.00 | 1.04 | 1.04 | 92 | 1006.4 |
| 20260506193019 | 61 | 171 | 3.0 | 7.0 | 0.00 | 1.04 | 1.04 | 92 | 1006.5 |
| 20260506192510 | 61 | 186 | 2.0 | 8.0 | 0.00 | 1.04 | 1.04 | 93 | 1006.5 |
| 20260506192010 | 61 | 176 | 3.0 | 8.0 | 0.00 | 1.04 | 1.04 | 93 | 1006.5 |
| 20260506191526 | 61 | 174 | 4.0 | 10.0 | 0.00 | 1.04 | 1.04 | 93 | 1006.5 |
| 20260506191010 | 61 | 189 | 5.0 | 10.0 | 0.00 | 1.04 | 1.04 | 93 | 1006.5 |
| 20260506190510 | 61 | 219 | 3.0 | 8.0 | 0.01 | 1.04 | 1.04 | 93 | 1006.5 |
| 20260506190030 | 61 | 212 | 5.0 | 9.0 | 0.01 | 1.04 | 1.04 | 94 | 1006.5 |
| 20260506185511 | 61 | 187 | 6.0 | 11.0 | 0.01 | 1.04 | 1.04 | 94 | 1006.5 |
| 20260506185008 | 61 | 190 | 5.0 | 10.0 | 0.01 | 1.04 | 1.04 | 94 | 1006.6 |
| 20260506184517 | 61 | 222 | 3.0 | 9.0 | 0.03 | 1.04 | 1.04 | 94 | 1006.6 |
| 20260506184010 | 61 | 161 | 5.0 | 8.0 | 0.05 | 1.04 | 1.04 | 94 | 1006.6 |
| 20260506183509 | 61 | 202 | 4.0 | 8.0 | 0.07 | 1.04 | 1.04 | 95 | 1006.8 |
| 20260506183019 | 60 | 176 | 3.0 | 9.0 | 0.09 | 1.04 | 1.04 | 95 | 1006.7 |
| 20260506182507 | 60 | 220 | 4.0 | 9.0 | 0.12 | 1.04 | 1.04 | 95 | 1006.8 |
| 20260506182012 | 60 | 145 | 3.0 | 7.0 | 0.13 | 1.04 | 1.04 | 94 | 1006.8 |
| 20260506181523 | 60 | 207 | 4.0 | 7.0 | 0.15 | 1.04 | 1.04 | 94 | 1006.9 |
| 20260506181010 | 60 | 215 | 2.0 | 7.0 | 0.15 | 1.04 | 1.04 | 94 | 1006.8 |
| 20260506180508 | 60 | 245 | 3.0 | 6.0 | 0.14 | 1.03 | 1.03 | 94 | 1006.8 |
| 20260506180027 | 60 | 201 | 0.0 | 6.0 | 0.16 | 1.03 | 1.03 | 95 | 1006.9 |
| 20260506175509 | 59 | 213 | 2.0 | 5.0 | 0.17 | 1.03 | 1.03 | 94 | 1007.0 |
| 20260506175009 | 59 | 203 | 2.0 | 9.0 | 0.18 | 1.03 | 1.03 | 94 | 1006.9 |
| 20260506174512 | 59 | 202 | 1.0 | 9.0 | 0.17 | 1.01 | 1.01 | 94 | 1007.0 |
| 20260506174007 | 59 | 180 | 0.0 | 6.0 | 0.16 | 0.99 | 0.99 | 94 | 1007.0 |
| 20260506173508 | 59 | 220 | 2.0 | 8.0 | 0.14 | 0.97 | 0.97 | 94 | 1006.8 |
| 20260506173021 | 59 | 191 | 4.0 | 9.0 | 0.12 | 0.95 | 0.95 | 94 | 1006.8 |
| 20260506172509 | 59 | 207 | 3.0 | 9.0 | 0.09 | 0.92 | 0.92 | 94 | 1007.0 |
| 20260506172008 | 59 | 209 | 3.0 | 8.0 | 0.08 | 0.91 | 0.91 | 94 | 1006.9 |
| 20260506171522 | 59 | 197 | 3.0 | 8.0 | 0.06 | 0.89 | 0.89 | 94 | 1007.0 |
| 20260506171011 | 59 | 199 | 3.0 | 8.0 | 0.06 | 0.89 | 0.89 | 93 | 1006.9 |
| 20260506170509 | 59 | 194 | 1.0 | 8.0 | 0.06 | 0.89 | 0.89 | 93 | 1006.9 |
| 20260506170026 | 59 | 200 | 3.0 | 7.0 | 0.04 | 0.87 | 0.87 | 93 | 1007.0 |
| 20260506165509 | 59 | 181 | 3.0 | 7.0 | 0.03 | 0.86 | 0.86 | 93 | 1007.0 |
| 20260506165010 | 59 | 217 | 2.0 | 9.0 | 0.02 | 0.85 | 0.85 | 93 | 1007.0 |
| 20260506164525 | 59 | 215 | 3.0 | 11.0 | 0.01 | 0.84 | 0.84 | 93 | 1007.0 |
| 20260506164011 | 59 | 236 | 6.0 | 12.0 | 0.00 | 0.83 | 0.83 | 93 | 1007.1 |
| 20260506163507 | 59 | 207 | 4.0 | 13.0 | 0.00 | 0.83 | 0.83 | 92 | 1007.1 |
| 20260506163022 | 59 | 162 | 4.0 | 13.0 | 0.00 | 0.83 | 0.83 | 93 | 1007.1 |
| 20260506162508 | 59 | 202 | 2.0 | 7.0 | 0.00 | 0.83 | 0.83 | 93 | 1007.1 |
| 20260506162010 | 59 | 178 | 3.0 | 7.0 | 0.00 | 0.83 | 0.83 | 93 | 1007.1 |
| 20260506161519 | 59 | 200 | 3.0 | 10.0 | 0.00 | 0.83 | 0.83 | 93 | 1007.1 |
| 20260506161007 | 59 | 229 | 5.0 | 12.0 | 0.01 | 0.83 | 0.83 | 93 | 1007.0 |
| 20260506160508 | 59 | 230 | 4.0 | 12.0 | 0.01 | 0.83 | 0.83 | 93 | 1007.0 |
| 20260506160023 | 59 | 187 | 4.0 | 10.0 | 0.02 | 0.83 | 0.83 | 93 | 1007.0 |
| 20260506155511 | 59 | 200 | 5.0 | 15.0 | 0.05 | 0.83 | 0.83 | 93 | 1007.0 |
| 20260506155011 | 59 | 198 | 6.0 | 15.0 | 0.08 | 0.83 | 0.83 | 93 | 1007.0 |
| 20260506154528 | 59 | 203 | 3.0 | 12.0 | 0.11 | 0.83 | 0.83 | 93 | 1007.0 |
| 20260506154012 | 59 | 165 | 4.0 | 12.0 | 0.16 | 0.83 | 0.83 | 93 | 1007.0 |
| 20260506153512 | 59 | 226 | 5.0 | 15.0 | 0.21 | 0.83 | 0.83 | 93 | 1006.9 |
| 20260506153025 | 59 | 224 | 6.0 | 15.0 | 0.25 | 0.83 | 0.83 | 93 | 1006.7 |
| 20260506152511 | 59 | 190 | 6.0 | 11.0 | 0.29 | 0.83 | 0.83 | 93 | 1006.7 |
| 20260506152007 | 59 | 213 | 5.0 | 11.0 | 0.31 | 0.83 | 0.83 | 93 | 1006.7 |
| 20260506151519 | 59 | 198 | 4.0 | 12.0 | 0.32 | 0.83 | 0.83 | 93 | 1006.6 |
| 20260506151010 | 59 | 213 | 6.0 | 15.0 | 0.32 | 0.82 | 0.82 | 93 | 1006.6 |
| 20260506150508 | 58 | 150 | 5.0 | 14.0 | 0.33 | 0.82 | 0.82 | 93 | 1006.8 |
| 20260506150022 | 59 | 184 | 5.0 | 10.0 | 0.33 | 0.81 | 0.81 | 93 | 1007.0 |
| 20260506145503 | 58 | 211 | 4.0 | 10.0 | 0.31 | 0.78 | 0.78 | 93 | 1007.0 |
| 20260506145004 | 58 | 212 | 4.0 | 8.0 | 0.29 | 0.75 | 0.75 | 93 | 1007.1 |
| 20260506144506 | 58 | 193 | 5.0 | 11.0 | 0.29 | 0.72 | 0.72 | 92 | 1007.0 |
| 20260506144004 | 58 | 203 | 5.0 | 11.0 | 0.26 | 0.67 | 0.67 | 92 | 1007.2 |
| 20260506143505 | 59 | 184 | 5.0 | 13.0 | 0.22 | 0.62 | 0.62 | 92 | 1007.3 |
| 20260506143011 | 59 | 177 | 6.0 | 12.0 | 0.19 | 0.58 | 0.58 | 92 | 1007.5 |
| 20260506142507 | 59 | 227 | 4.0 | 11.0 | 0.16 | 0.54 | 0.54 | 92 | 1007.6 |
| 20260506142007 | 59 | 207 | 4.0 | 13.0 | 0.15 | 0.52 | 0.52 | 92 | 1007.6 |
| 20260506141515 | 59 | 198 | 5.0 | 12.0 | 0.16 | 0.51 | 0.51 | 91 | 1007.4 |
| 20260506141011 | 59 | 194 | 5.0 | 11.0 | 0.17 | 0.50 | 0.50 | 91 | 1007.4 |
| 20260506140509 | 59 | 194 | 5.0 | 10.0 | 0.16 | 0.49 | 0.49 | 91 | 1007.2 |
| 20260506140020 | 59 | 238 | 4.0 | 13.0 | 0.15 | 0.48 | 0.48 | 91 | 1007.1 |
| 20260506135503 | 59 | 191 | 6.0 | 13.0 | 0.14 | 0.47 | 0.47 | 91 | 1007.0 |
| 20260506135003 | 59 | 209 | 5.0 | 8.0 | 0.14 | 0.46 | 0.46 | 91 | 1007.1 |
| 20260506134505 | 59 | 208 | 3.0 | 10.0 | 0.11 | 0.43 | 0.43 | 91 | 1007.0 |
| 20260506134005 | 59 | 182 | 6.0 | 11.0 | 0.11 | 0.41 | 0.41 | 90 | 1007.0 |
| 20260506133506 | 59 | 207 | 5.0 | 11.0 | 0.11 | 0.40 | 0.40 | 90 | 1007.2 |
| 20260506133012 | 59 | 193 | 5.0 | 15.0 | 0.11 | 0.39 | 0.39 | 90 | 1007.2 |
| 20260506132506 | 59 | 180 | 6.0 | 14.0 | 0.12 | 0.38 | 0.38 | 90 | 1007.2 |
| 20260506132013 | 59 | 194 | 5.0 | 12.0 | 0.13 | 0.37 | 0.37 | 90 | 1007.2 |
| 20260506131517 | 59 | 180 | 5.0 | 12.0 | 0.14 | 0.35 | 0.35 | 90 | 1007.4 |
| 20260506131008 | 59 | 192 | 3.0 | 11.0 | 0.15 | 0.33 | 0.33 | 90 | 1007.2 |
| 20260506130509 | 59 | 227 | 6.0 | 11.0 | 0.16 | 0.33 | 0.33 | 90 | 1007.2 |
| 20260506130020 | 59 | 218 | 3.0 | 9.0 | 0.19 | 0.33 | 0.33 | 90 | 1007.4 |
| 20260506125508 | 59 | 182 | 2.0 | 9.0 | 0.22 | 0.33 | 0.33 | 90 | 1007.4 |
| 20260506125011 | 59 | 236 | 4.0 | 8.0 | 0.23 | 0.32 | 0.32 | 90 | 1007.3 |
| 20260506124504 | 59 | 207 | 3.0 | 10.0 | 0.26 | 0.32 | 0.32 | 89 | 1007.4 |
| 20260506124004 | 59 | 195 | 4.0 | 10.0 | 0.27 | 0.30 | 0.30 | 89 | 1007.5 |
| 20260506123504 | 59 | 150 | 4.0 | 10.0 | 0.27 | 0.29 | 0.29 | 88 | 1007.6 |
| 20260506123006 | 59 | 153 | 4.0 | 10.0 | 0.27 | 0.28 | 0.28 | 88 | 1007.7 |
| 20260506122504 | 59 | 152 | 4.0 | 10.0 | 0.26 | 0.26 | 0.26 | 88 | 1007.7 |
| 20260506122006 | 59 | 178 | 5.0 | 10.0 | 0.24 | 0.24 | 0.24 | 87 | 1007.7 |
| 20260506121514 | 59 | 208 | 3.0 | 10.0 | 0.21 | 0.21 | 0.21 | 87 | 1007.8 |
| 20260506121006 | 59 | 196 | 5.0 | 15.0 | 0.18 | 0.18 | 0.18 | 85 | 1007.8 |
| 20260506120508 | 60 | 225 | 8.0 | 14.0 | 0.17 | 0.17 | 0.17 | 85 | 1007.9 |
| 20260506120020 | 60 | 195 | 6.0 | 12.0 | 0.14 | 0.14 | 0.14 | 84 | 1007.8 |
| 20260506115507 | 60 | 215 | 7.0 | 10.0 | 0.11 | 0.11 | 0.11 | 83 | 1007.7 |
| 20260506115008 | 61 | 188 | 4.0 | 9.0 | 0.09 | 0.09 | 0.09 | 82 | 1007.7 |
| 20260506114526 | 61 | 186 | 3.0 | 8.0 | 0.06 | 0.06 | 0.06 | 80 | 1007.7 |
| 20260506114007 | 61 | 175 | 4.0 | 8.0 | 0.03 | 0.03 | 0.03 | 79 | 1007.6 |
| 20260506113511 | 62 | 202 | 5.0 | 8.0 | 0.02 | 0.02 | 0.02 | 77 | 1007.4 |
| 20260506113008 | 62 | 196 | 4.0 | 8.0 | 0.01 | 0.01 | 0.01 | 76 | 1007.4 |
| 20260506112506 | 63 | 200 | 2.0 | 9.0 | 0.00 | 0.00 | 0.00 | 75 | 1007.4 |
| 20260506112006 | 63 | 203 | 4.0 | 9.0 | 0.00 | 0.00 | 0.00 | 74 | 1007.3 |
| 20260506111509 | 63 | 208 | 4.0 | 9.0 | 0.00 | 0.00 | 0.00 | 74 | 1007.1 |
| 20260506111003 | 63 | 150 | 3.0 | 10.0 | 0.00 | 0.00 | 0.00 | 74 | 1007.1 |
| 20260506110507 | 63 | 192 | 4.0 | 14.0 | 0.00 | 0.00 | 0.00 | 74 | 1007.2 |
| 20260506110013 | 63 | 209 | 5.0 | 14.0 | 0.00 | 0.00 | 0.00 | 72 | 1007.2 |
| 20260506105509 | 64 | 182 | 4.0 | 12.0 | 0.00 | 0.00 | 0.00 | 72 | 1006.8 |
| 20260506105009 | 64 | 201 | 5.0 | 16.0 | 0.00 | 0.00 | 0.00 | 70 | 1006.9 |
| 20260506104518 | 64 | 197 | 5.0 | 16.0 | 0.00 | 0.00 | 0.00 | 69 | 1006.9 |
| 20260506104014 | 65 | 205 | 4.0 | 11.0 | 0.00 | 0.00 | 0.00 | 69 | 1006.8 |
| 20260506103509 | 65 | 190 | 4.0 | 12.0 | 0.00 | 0.00 | 0.00 | 68 | 1006.8 |
| 20260506103028 | 65 | 196 | 5.0 | 12.0 | 0.00 | 0.00 | 0.00 | 67 | 1006.7 |
| 20260506102512 | 65 | 216 | 5.0 | 9.0 | 0.00 | 0.00 | 0.00 | 67 | 1006.5 |
| 20260506102007 | 65 | 236 | 3.0 | 10.0 | 0.00 | 0.00 | 0.00 | 67 | 1006.5 |
| 20260506101508 | 65 | 173 | 4.0 | 14.0 | 0.00 | 0.00 | 0.00 | 66 | 1006.4 |
| 20260506101005 | 65 | 203 | 7.0 | 15.0 | 0.00 | 0.00 | 0.00 | 66 | 1006.5 |
| 20260506100503 | 65 | 177 | 8.0 | 15.0 | 0.00 | 0.00 | 0.00 | 66 | 1006.4 |
| 20260506100011 | 65 | 154 | 4.0 | 14.0 | 0.00 | 0.00 | 0.00 | 66 | 1006.4 |
| 20260506095507 | 65 | 175 | 4.0 | 13.0 | 0.00 | 0.00 | 0.00 | 66 | 1006.3 |
| 20260506095008 | 65 | 163 | 5.0 | 11.0 | 0.00 | 0.00 | 0.00 | 66 | 1006.3 |
| 20260506094528 | 65 | 157 | 3.0 | 13.0 | 0.00 | 0.00 | 0.00 | 66 | 1006.2 |
| 20260506094010 | 66 | 235 | 7.0 | 13.0 | 0.00 | 0.00 | 0.00 | 65 | 1006.1 |
| 20260506093509 | 66 | 217 | 4.0 | 10.0 | 0.00 | 0.00 | 0.00 | 65 | 1006.2 |
| 20260506093034 | 66 | 185 | 5.0 | 11.0 | 0.00 | 0.00 | 0.00 | 65 | 1006.4 |
| 20260506092510 | 66 | 213 | 7.0 | 11.0 | 0.00 | 0.00 | 0.00 | 65 | 1006.5 |
| 20260506092014 | 66 | 190 | 2.0 | 12.0 | 0.00 | 0.00 | 0.00 | 64 | 1006.6 |
| 20260506091526 | 66 | 183 | 3.0 | 12.0 | 0.00 | 0.00 | 0.00 | 64 | 1006.7 |
| 20260506091002 | 66 | 171 | 6.0 | 18.0 | 0.00 | 0.00 | 0.00 | 63 | 1006.8 |
| 20260506090503 | 67 | 229 | 4.0 | 18.0 | 0.00 | 0.00 | 0.00 | 63 | 1006.6 |
| 20260506090008 | 67 | 172 | 8.0 | 15.0 | 0.00 | 0.00 | 0.00 | 63 | 1006.7 |
| 20260506085503 | 67 | 185 | 6.0 | 11.0 | 0.00 | 0.00 | 0.00 | 63 | 1006.8 |
| 20260506085007 | 67 | 192 | 3.0 | 12.0 | 0.00 | 0.00 | 0.00 | 63 | 1006.8 |
| 20260506084515 | 67 | 192 | 5.0 | 16.0 | 0.00 | 0.00 | 0.00 | 62 | 1006.9 |
| 20260506084009 | 67 | 211 | 7.0 | 17.0 | 0.00 | 0.00 | 0.00 | 62 | 1006.8 |
| 20260506083509 | 67 | 118 | 5.0 | 17.0 | 0.00 | 0.00 | 0.00 | 62 | 1006.8 |
| 20260506083018 | 67 | 214 | 4.0 | 10.0 | 0.00 | 0.00 | 0.00 | 62 | 1006.8 |
| 20260506082513 | 67 | 206 | 4.0 | 14.0 | 0.00 | 0.00 | 0.00 | 61 | 1006.6 |
| 20260506082009 | 67 | 175 | 6.0 | 12.0 | 0.00 | 0.00 | 0.00 | 61 | 1006.8 |
| 20260506081524 | 67 | 180 | 4.0 | 12.0 | 0.00 | 0.00 | 0.00 | 61 | 1006.7 |
| 20260506081011 | 67 | 194 | 6.0 | 10.0 | 0.00 | 0.00 | 0.00 | 60 | 1006.7 |
| 20260506080510 | 67 | 211 | 6.0 | 9.0 | 0.00 | 0.00 | 0.00 | 60 | 1006.8 |
| 20260506073514 | 67 | 218 | 7.0 | 12.0 | 0.00 | 0.00 | 0.00 | 58 | 1006.9 |
| 20260506073016 | 67 | 233 | 5.0 | 11.0 | 0.00 | 0.00 | 0.00 | 58 | 1006.9 |
| 20260506072509 | 67 | 209 | 6.0 | 11.0 | 0.00 | 0.00 | 0.00 | 57 | 1006.9 |
| 20260506072009 | 68 | 198 | 5.0 | 11.0 | 0.00 | 0.00 | 0.00 | 57 | 1007.0 |